This is the latest recevied weather packets stored in our database for station/object KE0PRS. If no packets are shown the sender has not sent any weather packets the latest 10 day(s).
| Time | Temp. | Humidity | Pressure | Rain* | Wind** | Luminosity | Snow |
|---|---|---|---|---|---|---|---|
| 1777992849 | 9.44° C | 64% | 1013.4 hPa | 0 mm | - | 143 W/m² | - |
| 1777992546 | 10° C | 60% | 1013.2 hPa | 0 mm | - | 121 W/m² | - |
| 1777992244 | 10° C | 54% | 1013.4 hPa | 0 mm | - | 77 W/m² | - |
| 1777991941 | 10.56° C | 53% | 1013.4 hPa | 0 mm | - | 54 W/m² | - |
| 1777991638 | 10.56° C | 53% | 1013.3 hPa | 0 mm | - | 47 W/m² | - |
| 1777991335 | 10.56° C | 52% | 1013.2 hPa | 0 mm | - | 41 W/m² | - |
| 1777991033 | 10.56° C | 52% | 1013.2 hPa | 0 mm | - | 51 W/m² | - |
| 1777990730 | 10.56° C | 52% | 1013.3 hPa | 0 mm | - | 56 W/m² | - |
| 1777990427 | 10.56° C | 52% | 1013 hPa | 0 mm | - | 92 W/m² | - |
| 1777989820 | 10.56° C | 52% | 1012.9 hPa | 0 mm | - | 72 W/m² | - |
| 1777989518 | 10.56° C | 53% | 1012.7 hPa | 0 mm | - | 73 W/m² | - |
| 1777989213 | 10.56° C | 52% | 1012.7 hPa | 0 mm | - | 66 W/m² | - |
| 1777988910 | 10.56° C | 53% | 1012.7 hPa | 0 mm | - | 63 W/m² | - |
| 1777988607 | 10.56° C | 53% | 1012.6 hPa | 0 mm | - | 38 W/m² | - |
| 1777988303 | 10.56° C | 53% | 1012.5 hPa | 0 mm | - | 42 W/m² | - |
| 1777988000 | 10.56° C | 54% | 1012.5 hPa | 0 mm | - | 62 W/m² | - |
| 1777987696 | 10.56° C | 53% | 1012 hPa | 0 mm | - | 28 W/m² | - |
| 1777987393 | 10.56° C | 53% | 1011.9 hPa | 0 mm | - | 67 W/m² | - |
| 1777987090 | 10.56° C | 53% | 1011.9 hPa | 0 mm | - | 44 W/m² | - |
| 1777986788 | 10.56° C | 52% | 1011.8 hPa | 0 mm | - | 32 W/m² | - |
| 1777986485 | 10.56° C | 53% | 1011.6 hPa | 0 mm | - | 26 W/m² | - |
| 1777986183 | 10.56° C | 53% | 1011.4 hPa | 0 mm | - | 26 W/m² | - |
| 1777985880 | 10.56° C | 53% | 1011.4 hPa | 0 mm | - | 35 W/m² | - |
| 1777985577 | 10.56° C | 53% | 1011.2 hPa | 0 mm | - | 30 W/m² | - |
| 1777985274 | 10.56° C | 53% | 1011.1 hPa | 0 mm | - | 26 W/m² | - |
* Rain latest hour (hover to see other rain measurements)
** Current wind speed in m/s (hover to see current wind gust speed)